Weather History for KMCW - October, 2012

Change the Weather History Date:

Friday, October 5, 2012

  Actual Average Record
Temperature  
Mean Temperature 41 °F 52 °F  
Max Temperature 51 °F 65 °F 95 °F (1963)
Min Temperature 30 °F 40 °F 22 °F (1935)
Degree Days  
Heating Degree Days 24 13  
Month to date heating degree days 62 61  
Since 1 July heating degree days 254 274  
Cooling Degree Days 0 0  
Month to date cooling degree days 0 2  
Year to date cooling degree days 899 612  
Moisture  
Dew Point 21 °F    
Average Humidity 46    
Maximum Humidity 72    
Minimum Humidity 20    
Precipitation  
Precipitation 0.00 in 0.08 in 0.98 in (1955)
Month to date precipitation 0.00 0.48  
Year to date precipitation 16.16 30.11  
Snow  
Snow 0.00 in 0.00 in 0.00 in (2002)
Month to date snowfall 0.0 0.0  
Since 1 July snowfall 0.0 0.0  
Since 1 September snowfall 0.0 0.0  
Snow Depth 0.00 in    
Sea Level Pressure  
Sea Level Pressure 30.22 in    
Wind  
Wind Speed 14 mph (WNW)    
Max Wind Speed 25 mph    
Max Gust Speed 31 mph    
Visibility 10 miles    
Events      
T = Trace of Precipitation, MM = Missing Value Source: NWS Daily Summary

Daily Weather History Graph

Daily Weather History Graph

Search for Another Location

Airport or City:

Trip Planner

Search our weather history database for the weather conditions in past years. The results will help you decide how hot, cold, wet, or windy it might be!

Date:

Astronomy

Oct. 05, 2012 Rise Set
Actual Time 7:15 AM CDT 6:46 PM CDT
Civil Twilight 6:47 AM CDT 7:14 PM CDT
Nautical Twilight 6:14 AM CDT 7:47 PM CDT
Astronomical Twilight 5:41 AM CDT 8:20 PM CDT
Moon 10:03 PM CDT (10/5) 12:31 PM CDT (10/5)
Length of Visible Light 12h 27m
Length of Day
11h 30m
Waning Gibbous, 74% of the Moon is Illuminated
Oct 5
Waning Gibbous
Oct 8
Last Quarter
Oct 15
New
Oct 21
First Quarter
Oct 29
Full

Hourly Weather History & Observations

Time (CDT) Temp. Windchill Dew Point Humidity Pressure Visibility Wind Dir Wind Speed Gust Speed Precip Events Conditions
12:53 AM 37.0 °F 31.0 °F 26.1 °F 65% 30.25 in 10.0 mi West 8.1 mph - N/A   Scattered Clouds
1:53 AM 34.0 °F 26.6 °F 25.0 °F 70% 30.24 in 10.0 mi West 9.2 mph - N/A   Clear
2:53 AM 35.6 °F 29.9 °F 26.6 °F 70% 30.23 in 10.0 mi West 6.9 mph - N/A   Mostly Cloudy
3:53 AM 36.0 °F 28.5 °F 26.1 °F 67% 30.22 in 10.0 mi West 10.4 mph - N/A   Overcast
4:53 AM 32.0 °F 22.5 °F 24.1 °F 73% 30.22 in 10.0 mi WNW 12.7 mph - N/A   Clear
5:53 AM 34.0 °F 24.6 °F 24.1 °F 67% 30.22 in 10.0 mi WNW 13.8 mph - N/A   Clear
6:53 AM 32.0 °F 23.6 °F 23.0 °F 69% 30.23 in 10.0 mi WNW 10.4 mph - N/A   Clear
7:53 AM 33.1 °F 26.1 °F 24.1 °F 70% 30.25 in 10.0 mi West 8.1 mph - N/A   Clear
8:53 AM 35.1 °F 27.4 °F 24.1 °F 64% 30.26 in 10.0 mi West 10.4 mph - N/A   Clear
9:53 AM 37.9 °F 28.5 °F 25.0 °F 60% 30.25 in 10.0 mi WNW 17.3 mph - N/A   Clear
10:53 AM 39.9 °F 32.1 °F 21.9 °F 49% 30.24 in 10.0 mi WNW 13.8 mph - N/A   Clear
11:53 AM 42.8 °F 35.8 °F 21.2 °F 42% 30.21 in 10.0 mi WNW 13.8 mph - N/A   Clear
12:53 PM 48.0 °F - 17.1 °F 29% 30.22 in 10.0 mi West 21.9 mph 25.3 mph N/A   Clear
2:53 PM 46.9 °F - 16.0 °F 29% 30.19 in 10.0 mi West 20.7 mph - N/A   Clear
3:53 PM 48.9 °F - 12.9 °F 24% 30.18 in 10.0 mi West 19.6 mph 29.9 mph N/A   Clear
4:53 PM 50.0 °F - 10.9 °F 21% 30.16 in 10.0 mi WNW 26.5 mph 31.1 mph N/A   Clear
5:53 PM 46.9 °F - 12.9 °F 25% 30.17 in 10.0 mi NW 19.6 mph 28.8 mph N/A   Clear
6:53 PM 43.0 °F 35.4 °F 15.1 °F 32% 30.19 in 10.0 mi NW 16.1 mph 24.2 mph N/A   Clear
7:53 PM 39.9 °F 32.5 °F 19.0 °F 43% 30.20 in 10.0 mi NW 12.7 mph - N/A   Clear
8:53 PM 37.9 °F 30.5 °F 19.9 °F 48% 30.22 in 10.0 mi NW 11.5 mph - N/A   Clear
9:53 PM 36.0 °F 27.5 °F 21.0 °F 55% 30.23 in 10.0 mi NW 12.7 mph - N/A   Clear
10:53 PM 34.0 °F 25.5 °F 21.9 °F 61% 30.23 in 10.0 mi NW 11.5 mph - N/A   Clear
11:53 PM 33.1 °F 23.9 °F 21.0 °F 61% 30.22 in 10.0 mi WNW 12.7 mph - N/A   Clear